DLH411 KJFK-EDDM

Flight info

Callsign DLH411
Flight time N/A
Altitude 37000
Route MERIT DCT HFD DCT PUT DCT ALLEX DCT 47N060W DCT VINSI DCT YQX DCT ELSIR/M084F390 DCT 50N050W 52N040W 53N030W 53N020W DCT MALOT DCT GISTI/N0486F390 DCT BAKUR DCT OKSAW/N0481F410 DCT KONAN DCT KOK DCT MATUG DCT MOVUM T109 HAREM/N0468F350 T104 ELMOX/N0435F270 T104 ROKIL ROKIL1A
Aircraft A359/H-SADE2E3GHIJ1J2J3J4J5M1P2RWXYZ/LB1D1

Departure

Time 2026-05-01 14:50
Airport John F. Kennedy International Airport (KJFK)

Arrival

Time N/A
Airport Munich Airport (EDDM)
Time Latitude Longitude Altitude Speed Heading
2026-05-01 14:36 40.64178 -73.79325 27 ft 0 kts 108°
2026-05-01 14:37 40.64178 -73.79326 27 ft 2 kts 108°
2026-05-01 14:38 40.64186 -73.79358 27 ft 3 kts 108°
2026-05-01 14:38 40.64193 -73.79384 27 ft 4 kts 114°
2026-05-01 14:38 40.64205 -73.79416 24 ft 4 kts 117°
2026-05-01 14:38 40.64214 -73.79442 25 ft 4 kts 86°
2026-05-01 14:39 40.64210 -73.79466 24 ft 4 kts 83°
2026-05-01 14:39 40.64209 -73.79489 25 ft 4 kts 126°
2026-05-01 14:39 40.64219 -73.79500 24 ft 4 kts 175°
2026-05-01 14:39 40.64245 -73.79500 26 ft 4 kts 184°
2026-05-01 14:40 40.64271 -73.79498 25 ft 4 kts 183°
2026-05-01 14:40 40.64297 -73.79496 26 ft 2 kts 183°
2026-05-01 14:40 40.64299 -73.79496 26 ft 4 kts 183°
2026-05-01 14:42 40.64298 -73.79496 26 ft 2 kts 183°
2026-05-01 14:43 40.64259 -73.79499 26 ft 7 kts 183°
2026-05-01 14:43 40.64191 -73.79504 26 ft 11 kts 183°
2026-05-01 14:43 40.64111 -73.79504 27 ft 12 kts 168°
2026-05-01 14:43 40.64045 -73.79437 26 ft 13 kts 126°
2026-05-01 14:44 40.63993 -73.79330 26 ft 15 kts 120°
2026-05-01 14:44 40.63882 -73.79080 27 ft 17 kts 121°
2026-05-01 14:44 40.63819 -73.78944 27 ft 18 kts 121°
2026-05-01 14:45 40.63754 -73.78801 27 ft 19 kts 121°
2026-05-01 14:45 40.63613 -73.78492 27 ft 21 kts 120°
2026-05-01 14:45 40.63539 -73.78325 27 ft 22 kts 121°
2026-05-01 14:46 40.63460 -73.78154 27 ft 23 kts 121°
2026-05-01 14:46 40.63299 -73.77787 30 ft 23 kts 119°
2026-05-01 14:46 40.63218 -73.77604 29 ft 24 kts 121°
2026-05-01 14:47 40.63130 -73.77413 28 ft 25 kts 121°
2026-05-01 14:47 40.63041 -73.77217 27 ft 24 kts 121°
2026-05-01 14:47 40.62957 -73.77095 27 ft 15 kts 180°
2026-05-01 14:48 40.62830 -73.77244 28 ft 12 kts 286°
2026-05-01 14:48 40.62845 -73.77279 28 ft 0 kts 302°
2026-05-01 14:48 40.62846 -73.77280 28 ft 2 kts 302°
2026-05-01 14:49 40.63217 -73.78098 29 ft 109 kts 301°
2026-05-01 14:49 40.64303 -73.80500 265 ft 180 kts 301°
2026-05-01 14:50 40.65147 -73.82353 1261 ft 178 kts 303°
2026-05-01 14:50 40.65528 -73.86914 2354 ft 228 kts 240°
2026-05-01 14:51 40.64270 -73.88313 2715 ft 251 kts 208°
2026-05-01 14:51 40.60733 -73.89585 3919 ft 272 kts 181°
2026-05-01 14:52 40.57322 -73.87637 5403 ft 279 kts 133°
2026-05-01 14:52 40.56073 -73.85634 6007 ft 287 kts 128°
2026-05-01 14:52 40.53742 -73.81313 7134 ft 296 kts 115°
2026-05-01 14:53 40.53216 -73.78734 7743 ft 292 kts 88°
2026-05-01 14:53 40.53610 -73.76182 8352 ft 283 kts 59°
2026-05-01 14:53 40.54785 -73.74178 8906 ft 274 kts 32°
2026-05-01 14:53 40.56407 -73.72917 9531 ft 271 kts 21°
2026-05-01 14:54 40.58073 -73.71722 10166 ft 274 kts 22°
2026-05-01 14:54 40.59747 -73.70416 10541 ft 288 kts 25°
2026-05-01 14:54 40.61514 -73.69050 10782 ft 302 kts 22°
2026-05-01 14:54 40.63374 -73.67701 11007 ft 316 kts 22°
2026-05-01 14:55 40.65353 -73.66295 11256 ft 330 kts 22°
2026-05-01 14:55 40.67421 -73.64830 11504 ft 344 kts 22°
2026-05-01 14:55 40.69557 -73.63313 11837 ft 353 kts 22°
2026-05-01 14:55 40.71740 -73.61754 12261 ft 360 kts 22°
2026-05-01 14:56 40.73826 -73.60269 12603 ft 362 kts 21°
2026-05-01 14:56 40.76081 -73.58699 12938 ft 371 kts 22°
2026-05-01 14:56 40.78366 -73.57071 13369 ft 376 kts 22°
2026-05-01 14:56 40.80675 -73.55402 13794 ft 382 kts 22°
2026-05-01 14:57 40.82986 -73.53728 14178 ft 386 kts 22°
2026-05-01 14:57 40.87729 -73.50294 15076 ft 392 kts 22°
2026-05-01 14:57 40.90132 -73.48561 15528 ft 394 kts 22°
2026-05-01 14:58 40.92553 -73.46820 15965 ft 398 kts 22°
2026-05-01 14:58 40.94992 -73.45067 16409 ft 401 kts 22°
2026-05-01 14:58 40.97451 -73.43299 16868 ft 404 kts 22°
2026-05-01 14:58 40.99927 -73.41518 17296 ft 407 kts 22°
2026-05-01 14:59 41.02392 -73.39742 17732 ft 410 kts 22°
2026-05-01 14:59 41.04900 -73.37934 18157 ft 413 kts 22°
2026-05-01 14:59 41.07434 -73.36104 18547 ft 416 kts 22°
2026-05-01 14:59 41.09981 -73.34264 18900 ft 419 kts 22°
2026-05-01 15:00 41.15135 -73.30534 19650 ft 424 kts 22°
2026-05-01 15:00 41.17733 -73.28650 20026 ft 427 kts 22°
2026-05-01 15:00 41.20350 -73.26752 20394 ft 430 kts 22°
2026-05-01 15:01 41.22979 -73.24832 20775 ft 434 kts 24°
2026-05-01 15:01 41.25480 -73.22509 21128 ft 444 kts 36°
2026-05-01 15:01 41.27642 -73.19613 21481 ft 452 kts 45°
2026-05-01 15:01 41.29597 -73.16307 21850 ft 457 kts 51°
2026-05-01 15:02 41.31401 -73.12809 22201 ft 461 kts 53°
2026-05-01 15:02 41.31993 -73.11602 22322 ft 462 kts 54°
2026-05-01 15:02 41.34887 -73.05583 22917 ft 467 kts 54°
2026-05-01 15:02 41.36654 -73.01947 23280 ft 469 kts 54°
2026-05-01 15:03 41.38450 -72.98316 23593 ft 472 kts 53°
2026-05-01 15:03 41.40282 -72.94670 23878 ft 474 kts 53°
2026-05-01 15:03 41.42128 -72.91031 24209 ft 475 kts 53°
2026-05-01 15:03 41.43994 -72.87370 24511 ft 477 kts 53°
2026-05-01 15:04 41.45866 -72.83699 24818 ft 480 kts 53°
2026-05-01 15:04 41.47744 -72.80016 25129 ft 481 kts 53°
2026-05-01 15:04 41.49626 -72.76317 25427 ft 484 kts 53°
2026-05-01 15:04 41.51517 -72.72592 25717 ft 486 kts 53°
2026-05-01 15:05 41.53412 -72.68853 26025 ft 488 kts 53°
2026-05-01 15:05 41.55315 -72.65092 26313 ft 490 kts 53°
2026-05-01 15:05 41.57227 -72.61306 26597 ft 492 kts 53°
2026-05-01 15:05 41.59144 -72.57507 26908 ft 494 kts 53°
2026-05-01 15:06 41.61069 -72.53686 27194 ft 497 kts 53°
2026-05-01 15:06 41.63002 -72.49852 27484 ft 499 kts 53°
2026-05-01 15:06 41.64942 -72.45998 27759 ft 501 kts 53°
2026-05-01 15:06 41.66891 -72.42114 28049 ft 504 kts 53°
2026-05-01 15:07 41.68840 -72.38225 28346 ft 506 kts 53°
2026-05-01 15:07 41.70810 -72.34287 28632 ft 508 kts 53°
2026-05-01 15:07 41.72781 -72.30342 28919 ft 511 kts 53°
2026-05-01 15:07 41.74758 -72.26383 29227 ft 513 kts 53°
2026-05-01 15:08 41.76743 -72.22403 29516 ft 515 kts 53°
2026-05-01 15:08 41.78736 -72.18402 29795 ft 518 kts 53°
2026-05-01 15:08 41.80737 -72.14380 30071 ft 520 kts 53°
2026-05-01 15:08 41.82747 -72.10333 30309 ft 522 kts 54°
2026-05-01 15:09 41.84734 -72.06327 30531 ft 524 kts 54°
2026-05-01 15:09 41.86758 -72.02242 30770 ft 526 kts 54°
2026-05-01 15:09 41.88787 -71.98142 30981 ft 528 kts 54°
2026-05-01 15:09 41.90821 -71.94027 31194 ft 530 kts 54°
2026-05-01 15:10 41.92861 -71.89893 31405 ft 532 kts 54°
2026-05-01 15:10 41.96974 -71.81595 31812 ft 536 kts 53°
2026-05-01 15:10 41.99151 -71.77512 32015 ft 537 kts 51°
2026-05-01 15:11 42.01384 -71.73490 32204 ft 538 kts 51°
2026-05-01 15:11 42.05909 -71.65436 32599 ft 541 kts 51°
2026-05-01 15:11 42.08155 -71.61400 32873 ft 540 kts 51°
2026-05-01 15:12 42.10400 -71.57327 33134 ft 540 kts 52°
2026-05-01 15:12 42.14856 -71.49171 33601 ft 540 kts 52°
2026-05-01 15:12 42.17076 -71.45087 33843 ft 540 kts 52°
2026-05-01 15:13 42.23721 -71.32820 34462 ft 539 kts 52°
2026-05-01 15:14 42.28135 -71.24649 34880 ft 538 kts 53°
2026-05-01 15:14 42.30338 -71.20565 35065 ft 538 kts 53°
2026-05-01 15:14 42.34738 -71.12391 35452 ft 537 kts 53°
2026-05-01 15:15 42.39122 -71.04224 35841 ft 536 kts 53°
2026-05-01 15:15 42.43497 -70.96052 36208 ft 536 kts 53°
2026-05-01 15:16 42.47834 -70.87928 36556 ft 535 kts 53°
2026-05-01 15:16 42.52215 -70.79698 36888 ft 536 kts 53°
2026-05-01 15:18 42.63146 -70.59071 36891 ft 540 kts 54°
2026-05-01 15:19 42.71145 -70.43884 36878 ft 539 kts 54°
2026-05-01 15:19 42.77675 -70.31426 36883 ft 539 kts 54°
2026-05-01 15:20 42.84180 -70.18966 36883 ft 538 kts 54°
2026-05-01 15:21 42.88507 -70.10649 36885 ft 537 kts 55°
2026-05-01 15:21 42.92822 -70.02332 36884 ft 537 kts 55°
2026-05-01 15:22 42.99276 -69.89846 36883 ft 536 kts 55°
2026-05-01 15:22 43.03569 -69.81514 36880 ft 536 kts 55°
2026-05-01 15:23 43.07854 -69.73174 36880 ft 536 kts 56°
2026-05-01 15:23 43.12128 -69.64829 36875 ft 535 kts 56°
2026-05-01 15:24 43.16395 -69.56478 36876 ft 535 kts 56°
2026-05-01 15:24 43.20653 -69.48119 36870 ft 535 kts 56°
2026-05-01 15:25 43.24904 -69.39749 36878 ft 534 kts 56°
2026-05-01 15:25 43.29146 -69.31374 36856 ft 534 kts 56°
2026-05-01 15:26 43.33378 -69.22996 36861 ft 534 kts 56°
2026-05-01 15:26 43.37605 -69.14604 36864 ft 534 kts 56°
2026-05-01 15:27 43.41825 -69.06203 36864 ft 533 kts 56°
2026-05-01 15:28 43.48135 -68.93594 36853 ft 533 kts 57°
2026-05-01 15:28 43.52326 -68.85190 36848 ft 532 kts 57°
2026-05-01 15:29 43.58567 -68.72632 36847 ft 531 kts 57°
2026-05-01 15:30 43.66880 -68.55819 36841 ft 530 kts 57°
2026-05-01 15:31 43.79263 -68.30592 36832 ft 528 kts 58°
2026-05-01 15:32 43.87474 -68.13745 36827 ft 527 kts 58°
2026-05-01 15:34 43.99726 -67.88426 36816 ft 527 kts 58°